Tracking 30923 objects as of 1-Jul-2025
HD Live streaming from Space Station
objects crossing your sky now

SL-3 R/B

Track SL-3 R/B now!
10-day predictions
SL-3 R/B is classified as:


NORAD ID: 12904
Int'l Code: 1981-103B
Perigee: 504.9 km
Apogee: 531.8 km
Inclination: 81.2 °
Period: 94.8 minutes
Semi major axis: 6889 km
RCS: 5.653 m2 (large)
Launch date: October 13, 1981
Source: Commonwealth of Independent States (former USSR) (CIS)
Launch site: PLESETSK MISSILE AND SPACE COMPLEX (PKMTR)

Note: This is a ROCKET BODY
Your satellite tracking list
Your tracking list is empty




NASA's NSSDC Master Catalog

Two Line Element Set (TLE):
1 12904U 81103B   25181.91621354  .00003493  00000-0  16867-3 0  9997
2 12904  81.1602 148.0092 0019522  71.1734 289.1611 15.18230723934996
Source of the keplerian elements: AFSPC